Regional Weather Roundup
Issued by NWS Sterling, VA

Home | Current Version | Previous Version | Graphics & Text | Print | Product List | Glossary On
Versions: 1 2 3 4 5 6 7 8 9 10 11 12 13 14 15 16 17 18 19 20 21 22 23 24 25 26 27
000
ASUS41 KLWX 271711
RWRLWX

REGIONAL WEATHER ROUNDUP
NATIONAL WEATHER SERVICE BALTIMORE MD/WASHINGTON DC
100 PM EDT TUE JUN 27 2017

Note: "FAIR" indicates few or no clouds below 12,000 feet
with no significant weather and/or obstructions to visibility.
 TC=TEMPERATURE CELSIUS

 * =Non NWS site. Station does not report precipitation (e.g. rain,
    snow, etc.), thunder, or fog.

DCZ001-MDZ009-015-VAZ040>042-051-053>054-271800-
WASHINGTON METRO

CITY           SKY/WX    TMP DP  RH WIND       PRES   REMARKS
WASHINGTON NAT PTSUNNY   80  49  33 W8G21     30.01F
DULLES         PTSUNNY   75  48  38 VRB6      30.02F
ANDREWS AFB    MOSUNNY   77  48  35 N8        30.00F
FT BELVOIR     PTSUNNY   78  49  36 NW10      30.01F
QUANTICO       PTSUNNY   79  52  38 VRB5      30.02F
COLLEGE PARK*  PTSUNNY   75  50  41 W7        30.01F
LEESBURG*      MOSUNNY   79  55  44 CALM      30.03F
MANASSAS*      MOSUNNY   78  52  40 NW9       30.02F
GAITHERSBURG*  MOSUNNY   75  54  47 W9        30.04S

$$

MDZ006>007-011-014-271800-
BALTIMORE METRO

CITY           SKY/WX    TMP DP  RH WIND       PRES   REMARKS
BWI AIRPORT    PTSUNNY   78  50  37 W14G22    30.01S
MD SCIENCE CTR   N/A     81  49  32 MISG      30.01F
MARTIN STATE   PTSUNNY   79  52  38 W13G22    30.02S
ANNAPOLIS      MOSUNNY   75  53  46 W9        30.00F
FORT MEADE*    SUNNY     73  52  46 NW10      30.04S

$$

MDZ012-015-019>023-271800-
MARYLAND EASTERN SHORE

CITY           SKY/WX    TMP DP  RH WIND       PRES   REMARKS
OCEAN CITY     MOSUNNY   73  60  63 SE8       30.01F
SALISBURY      SUNNY     81  53  37 N8        30.00F
BAY BRIDGE AP* SUNNY     79  52  38 NW10G17   30.00F
CAMBRIDGE*     SUNNY     77  54  44 NW9       30.01F
EASTON*        MOSUNNY   79  52  38 NW7       30.05F

$$

MDZ017>025-271800-
SOUTHERN MARYLAND

CITY           SKY/WX    TMP DP  RH WIND       PRES   REMARKS
PATUXENT RIVER MOSUNNY   80  53  39 N9        30.01F
ST INIGOES     SUNNY     79  52  38 W5        30.00F
LEONARDTOWN*   SUNNY     77  52  41 W5        30.02F

$$

MDZ003>005-271800-
NORTH CENTRAL MARYLAND

CITY           SKY/WX    TMP DP  RH WIND       PRES   REMARKS
FREDERICK*     MOSUNNY   77  46  33 N14G21    30.04F
HAGERSTOWN APT MOSUNNY   74  49  41 W12G23    30.02F
WESTMINSTER*   MOSUNNY   75  52  43 W10G18    30.02F

$$

MDZ501>502-271800-
WESTERN MARYLAND

CITY           SKY/WX    TMP DP  RH WIND       PRES   REMARKS
OAKLAND*       NOT AVBL
CUMBERLAND*    SUNNY     72  45  37 W14       30.08F

$$

VAZ025>031-271800-
SHENANDOAH VALLEY

CITY           SKY/WX    TMP DP  RH WIND       PRES   REMARKS
WINCHESTER*    MOSUNNY   72  45  37 NW15      30.03S
FRONT ROYAL*   MOSUNNY   77  45  31 W7G16     30.02F
LURAY*         PTSUNNY   73  45  35 NW13      30.04S
NEW MARKET*    MOSUNNY   75  44  32 NW3       30.03S
STAUNTON*      MOSUNNY   74  44  33 NW12      30.07S
WAYNESBORO*    MOSUNNY   73  47  39 W6G21     30.07S

$$

WVZ021-048>050-054>055-271800-
EASTERN WEST VIRGINIA PANHANDLE

CITY           SKY/WX    TMP DP  RH WIND       PRES   REMARKS
MARTINSBURG    MOSUNNY   74  45  35 W12G29    30.02F
PETERSBURG*    MOSUNNY   75  45  34 NW10G18   30.06S

$$

VAZ036>039-050-271800-
CENTRAL FOOTHILLS

CITY           SKY/WX    TMP DP  RH WIND       PRES   REMARKS
CHARLOTTESVILL MOSUNNY   79  51  37 W9        30.04F
CULPEPER*      MOSUNNY   79  51  37 W3        30.03F
ORANGE*        SUNNY     77  50  38 W7G16     30.03S
GORDONSVILLE*  SUNNY     79  50  36 SW8       30.03S
WARRENTON*     MOSUNNY   81  44  27 W5        30.02F

$$

VAZ055>057-271800-
NORTH AND CENTRAL PIEDMONT

CITY           SKY/WX    TMP DP  RH WIND       PRES   REMARKS
FREDERICKSBRG* SUNNY     80  51  36 NW6       30.01S
STAFFORD*      PTSUNNY   78  49  34 W7        30.05F

$$

NCZ024-NYZ072-PAZ021-071-VAZ022-071-271800-
OTHER REGIONAL OBSERVATIONS

CITY           SKY/WX    TMP DP  RH WIND       PRES   REMARKS
NEW YORK CITY  MOSUNNY   74  59  59 VRB3      30.00F
PHILADELPHIA   MOSUNNY   77  54  44 SW8       29.99F
PITTSBURGH     PTSUNNY   65  47  52 W16       30.07S
ROANOKE        CLOUDY    74  48  39 W13       30.10F
RICHMOND       MOSUNNY   80  51  36 VRB3      30.03F
RALEIGH        MOSUNNY   80  54  40 VRB6      30.07S

$$

ANZ530>537-271800-
MARINE OBSERVATIONS

STATION/POSITION TIME  TEMP    WIND        PRES
                       AIR SEA DIR/SP/G
                 (UTC) (F)     (DEG/KT/KT) (MB)
THOMAS PT LIGHT  1700   75 78  300/ 11/ 13   N/A
BALT KEY BRIDGE  1648   74     270/ 15/ 17 1015.7F
COVE POINT       1648   73      50/  7/  9 1017.0F
LEWISETTA        1648   76 79  340/  3/  4 1016.4F
SOLOMONS ISLAND  1648   75 79  320/  4/  7   N/A
PINEY POINT      1636          270/  4/  5   N/A

$$





USA.gov is the U.S. government's official web portal to all federal, state and local government web resources and services.